Theta_e
341 343 343 344 345 343 341 341 340 339 339 338 336 332 329 333 335 337 339 339 339 339 339 338 337 337 337 337 334 334 331 331 333 329 328 328 328 328 327 326 325 321 318 317 319 324 330 333 334 335 335 336 337 338 337 336 336 336 337 337 337 335
341 343 343 342 345 344 342 341 341 340 340 339 337 333 331 333 334 335 337 339 339 339 340 339 338 339 338 338 336 334 330 331 334 330 327 328 327 327 327 326 325 321 318 317 321 330 333 334 335 335 335 337 338 337 336 336 336 336 337 337 336 335
342 343 343 342 344 345 343 341 341 341 341 340 339 336 335 334 334 334 335 337 338 338 339 339 339 339 339 339 337 335 332 331 334 331 326 327 327 327 327 326 324 321 318 319 327 336 338 337 336 336 336 338 337 337 337 336 336 336 336 336 335 333
342 343 344 343 344 345 344 341 340 342 342 342 340 337 335 335 334 333 333 334 336 337 338 338 338 339 339 339 338 335 333 332 334 332 326 327 327 326 326 325 323 319 318 324 332 337 338 339 338 336 338 338 337 336 337 336 335 336 336 335 334 333
342 343 344 343 344 344 344 341 340 342 343 342 341 338 335 335 335 334 334 334 335 336 336 336 337 338 338 339 339 337 335 333 335 333 328 330 329 328 327 326 324 319 321 329 334 335 335 339 338 337 338 337 337 337 336 335 335 335 335 334 333 332
342 343 343 342 343 344 344 341 340 342 342 343 341 338 336 335 335 335 334 334 335 334 334 336 337 337 337 339 339 337 335 334 336 335 331 333 332 329 328 329 328 323 326 332 333 333 334 337 337 337 338 336 337 337 335 335 335 335 334 334 332 332
343 343 343 341 342 344 344 340 340 341 341 343 342 339 336 335 335 335 334 334 335 334 333 335 336 337 337 338 337 336 334 335 336 336 333 333 335 330 328 332 331 328 331 332 332 332 334 338 338 337 337 336 337 336 335 334 334 333 333 333 331 331
343 343 342 341 340 342 342 340 341 341 341 342 342 339 337 335 336 335 334 334 335 335 335 335 335 336 336 336 336 335 335 336 336 336 333 333 336 332 329 332 332 331 332 332 332 333 335 338 338 337 337 337 336 335 334 333 333 332 331 331 330 329
343 343 343 341 340 340 341 341 341 341 341 342 341 340 338 335 335 335 334 334 335 336 336 336 336 336 336 336 337 336 337 336 335 337 333 332 336 332 330 331 332 331 331 332 333 334 337 338 337 337 336 336 336 335 333 333 332 331 330 330 329 327
342 342 342 341 340 339 339 341 341 340 340 341 340 339 337 334 334 334 334 335 335 337 337 337 338 338 338 338 338 338 338 337 336 337 335 334 335 331 330 332 332 331 331 333 334 336 338 338 337 337 336 335 335 334 333 332 330 330 330 328 327 325
342 343 342 341 339 338 338 340 340 339 340 340 340 338 336 334 334 335 335 336 336 337 338 338 338 339 339 339 339 339 339 338 337 338 336 334 333 331 332 333 331 330 332 335 337 338 338 338 337 336 336 335 334 333 332 331 329 327 328 328 326 324
343 343 342 341 339 338 338 338 338 338 339 340 339 338 335 333 334 335 336 336 337 338 338 339 338 339 339 339 340 339 339 338 337 337 334 331 332 333 333 332 330 331 335 337 338 338 337 337 336 335 335 334 333 332 331 329 328 326 326 327 325 324
343 342 342 341 338 338 338 338 338 337 338 339 339 337 335 334 334 335 336 336 338 339 339 339 339 339 338 337 338 337 336 336 335 333 331 332 334 333 332 334 335 336 338 338 338 338 337 337 336 335 334 333 332 331 330 328 327 327 326 325 324 324
342 342 341 340 339 338 338 337 337 336 337 339 339 337 336 335 335 336 336 337 339 339 339 339 339 338 336 335 336 335 335 334 333 333 332 333 335 334 336 338 339 339 338 338 338 337 336 336 335 334 333 332 332 331 329 328 326 326 325 324 324 324
342 342 341 340 339 339 338 337 337 336 336 338 338 337 336 335 335 336 336 337 339 338 337 338 337 337 336 335 336 336 335 333 334 334 332 334 336 337 339 339 339 339 338 338 337 336 336 335 334 334 333 331 331 331 329 327 326 325 323 322 322 323
343 342 342 340 339 339 338 337 336 336 336 338 337 337 336 335 336 337 335 335 337 337 336 336 336 336 338 339 338 338 336 334 335 334 332 337 339 340 340 338 339 338 337 337 336 336 335 334 334 333 332 331 330 331 329 325 324 323 321 320 319 319
343 343 343 341 340 339 338 338 337 336 337 337 337 337 336 336 336 335 331 332 335 336 336 337 337 338 341 341 340 340 340 339 338 335 337 342 341 340 339 338 338 338 337 337 336 336 335 334 333 331 330 330 331 330 327 323 322 322 321 319 317 316
344 344 343 342 340 339 339 338 338 337 337 338 337 337 336 336 336 332 328 330 334 336 337 339 339 340 341 341 340 341 344 344 342 341 343 344 340 340 339 337 337 337 337 337 336 335 335 334 332 330 329 330 330 329 326 322 321 321 320 318 316 315
344 344 343 342 341 340 340 338 338 338 338 338 337 337 336 336 335 329 326 331 335 338 338 339 339 339 340 341 339 341 345 345 344 345 344 343 341 340 340 337 335 336 337 337 336 335 335 334 332 331 330 330 330 328 325 321 320 320 318 317 315 314
345 345 343 343 342 340 340 339 339 339 339 339 337 337 337 336 334 327 327 334 338 338 338 338 338 339 340 341 339 340 345 345 344 345 344 343 341 340 342 339 335 337 337 336 335 335 334 333 332 331 330 330 329 327 324 321 320 319 317 316 314 313
345 345 344 343 342 341 340 339 339 339 340 340 338 338 337 337 334 327 329 337 339 338 338 338 338 338 340 342 340 340 342 344 344 344 344 343 341 341 343 341 337 338 337 335 335 335 334 333 331 330 330 330 327 326 323 321 320 318 317 316 313 313
346 346 344 343 342 341 341 339 340 340 340 340 339 338 338 338 335 328 330 338 339 339 339 339 339 339 340 341 341 340 340 341 342 343 343 343 343 342 344 342 338 337 337 335 334 335 334 333 331 331 331 330 327 325 323 321 320 318 317 316 314 314
347 346 345 344 343 342 342 340 340 340 340 341 339 338 337 338 337 330 331 338 340 339 339 339 339 339 340 341 341 341 340 340 342 343 343 343 343 343 344 342 337 336 337 335 334 334 334 332 332 332 331 330 328 326 324 322 321 319 317 316 315 314
347 346 345 345 344 344 343 342 341 341 341 340 339 338 337 338 338 333 333 338 339 339 339 339 339 339 339 340 341 341 340 340 341 342 343 342 342 341 341 341 338 335 335 335 334 334 333 334 334 333 331 330 329 328 327 325 323 320 318 317 316 315
348 347 346 346 345 345 344 342 342 342 341 340 339 339 339 339 338 335 334 337 339 339 339 338 338 338 338 339 340 341 340 340 341 343 343 342 342 341 339 340 339 336 334 335 335 334 333 335 335 332 331 332 330 330 330 326 324 323 319 318 317 315
349 347 346 346 346 346 344 343 344 343 342 342 341 341 340 339 337 334 336 337 337 338 339 337 338 338 338 339 340 341 341 342 342 342 342 341 341 341 340 339 339 337 337 337 337 336 335 334 334 332 331 332 332 333 331 327 326 325 321 319 318 317
349 348 347 347 346 346 345 345 345 344 343 343 342 342 341 339 336 334 337 337 336 337 338 336 337 338 338 338 339 340 341 343 343 342 341 341 341 341 341 340 339 338 338 338 338 337 335 334 334 333 332 332 332 333 331 327 328 327 324 322 320 318
350 349 348 348 347 346 346 346 346 345 344 343 343 343 342 340 336 334 335 335 334 335 337 337 337 338 339 339 339 340 342 343 343 343 342 340 341 342 341 340 339 338 338 338 339 338 336 334 334 333 332 332 333 333 331 329 329 329 328 326 322 320
350 350 349 349 348 347 347 347 347 346 345 344 343 343 343 339 336 333 331 333 334 336 338 338 338 339 339 339 340 341 343 343 343 342 341 340 340 342 342 341 340 339 339 339 338 338 337 335 334 334 333 333 333 332 330 329 329 329 329 328 324 322
351 350 350 349 349 348 347 347 347 347 346 345 344 343 343 340 337 335 334 336 337 338 338 338 338 338 339 340 340 341 342 343 343 343 341 340 340 340 340 341 340 339 339 338 337 337 337 336 335 335 333 333 332 331 330 330 328 328 328 328 326 323
351 350 350 349 349 348 348 348 348 348 347 346 344 343 343 342 341 340 339 339 339 339 338 338 338 338 340 340 340 341 342 342 343 343 341 340 340 339 339 339 338 338 338 336 337 338 337 336 335 334 333 332 332 330 330 330 328 327 326 327 326 325
350 349 349 349 349 349 348 348 349 349 348 347 345 344 343 343 342 341 340 340 339 339 338 338 338 339 340 341 341 341 343 343 342 342 341 340 339 339 339 338 337 338 338 336 337 337 336 335 334 334 334 333 332 331 330 330 329 327 326 326 325 325
351 349 349 350 350 349 349 349 349 349 348 348 347 345 344 344 343 342 341 340 340 340 339 338 338 339 340 341 341 342 342 342 342 341 341 340 339 339 338 338 338 339 339 337 337 337 336 335 334 334 334 333 332 331 330 330 329 327 327 326 326 325
350 350 350 350 350 349 349 349 349 350 349 348 348 346 345 344 344 343 342 342 341 340 339 338 338 338 340 341 342 342 342 342 342 341 340 339 338 339 338 337 338 340 339 338 337 337 337 336 335 335 334 333 332 331 331 330 329 328 327 327 327 326
349 350 349 350 350 350 350 350 349 350 350 348 348 347 346 345 345 343 342 342 341 340 340 339 338 338 339 340 342 342 342 343 342 341 340 338 338 338 338 338 339 340 340 339 338 337 336 336 335 335 334 334 333 331 331 330 329 328 327 327 327 326
350 350 351 351 351 351 350 350 350 350 349 349 348 348 347 346 345 344 343 342 342 341 340 339 338 338 338 340 341 342 343 343 341 341 340 339 339 338 338 339 338 338 339 339 338 337 337 336 335 335 334 333 333 332 331 330 330 328 328 327 327 326
350 350 351 351 351 351 351 350 351 350 349 349 348 348 348 347 346 345 344 342 342 342 340 339 339 339 339 340 341 342 342 342 342 341 339 339 339 338 337 338 337 336 337 336 336 337 337 337 335 334 333 333 333 332 331 330 329 328 328 327 327 326
Wind_Speed
22 23 20 19 19 17 18 18 17 17 15 15 12 13 16 16 15 14 14 15 17 17 16 17 15 15 15 13 12 12 15 15 14 15 16 14 14 12 11 9 8 7 6 7 7 7 8 8 8 6 5 4 3 2 5 5 6 9 11 13 14 13
22 23 20 19 20 18 19 18 17 17 16 15 13 12 13 14 15 15 14 14 14 14 14 15 14 15 14 13 13 13 14 15 14 14 16 14 14 12 11 9 8 7 7 7 7 8 9 8 8 7 6 3 1 3 4 6 8 10 11 13 13 12
22 24 21 19 21 20 20 19 17 17 16 15 14 13 13 13 14 16 16 15 14 14 14 14 14 14 15 15 14 13 14 15 14 14 16 14 14 12 11 10 9 8 8 8 9 9 9 8 9 8 6 2 2 3 4 6 9 10 12 13 12 11
22 24 22 19 21 21 21 19 19 19 18 17 15 14 14 13 14 16 17 17 15 15 15 15 14 13 15 15 14 14 14 15 14 14 16 14 13 12 11 10 9 10 10 10 11 10 9 8 9 9 5 3 3 5 6 8 9 11 13 13 12 12
22 24 22 20 20 20 21 19 18 20 19 19 17 15 15 14 14 16 17 17 16 16 15 15 15 14 15 16 14 14 13 14 14 14 16 14 12 13 11 11 11 12 12 13 12 10 8 8 9 10 6 4 3 5 6 10 11 13 14 12 12 12
22 23 22 20 19 19 21 19 18 19 19 19 18 17 16 15 15 16 16 16 16 16 16 15 16 15 16 16 15 15 14 15 15 15 17 14 13 14 13 13 13 14 14 13 11 8 8 8 8 8 6 6 4 3 6 11 11 13 14 12 11 11
23 23 22 20 19 19 19 18 18 18 18 19 18 17 16 16 16 17 16 16 16 15 16 15 16 17 17 17 16 15 15 15 16 16 18 15 14 15 14 15 14 14 14 11 10 8 7 7 5 5 5 6 4 3 6 10 11 12 14 12 10 8
23 23 22 21 20 19 18 18 19 18 18 19 19 17 16 16 16 17 17 16 16 16 16 15 16 17 17 16 15 15 15 16 16 16 17 16 14 14 14 14 13 13 12 10 10 8 7 7 5 4 6 5 4 4 6 9 11 10 12 13 10 6
24 24 23 22 20 19 19 18 18 19 18 19 19 17 17 17 16 17 17 17 16 16 16 15 16 17 16 15 15 15 15 15 15 15 16 16 14 14 14 13 12 12 11 10 9 8 7 6 6 6 7 7 5 5 6 8 9 10 12 12 10 7
24 25 24 23 21 19 19 19 19 19 18 18 18 17 17 17 16 17 17 17 17 16 16 15 16 16 15 16 15 15 15 14 15 14 15 15 13 14 14 12 12 12 10 10 9 8 7 4 6 7 8 8 6 6 6 7 8 10 12 10 9 8
25 25 25 23 21 20 19 19 20 19 18 18 18 17 17 17 16 16 16 17 17 17 16 15 16 16 15 15 15 15 14 14 14 13 14 15 13 13 13 12 12 11 9 8 8 9 9 6 6 8 8 8 7 7 6 6 6 7 10 11 10 10
26 24 24 23 21 20 20 20 20 19 18 18 18 18 17 17 16 16 16 17 17 17 16 16 17 16 15 15 15 15 14 13 14 13 14 14 13 13 12 12 12 10 8 7 8 9 9 8 8 9 9 8 7 7 6 4 5 6 7 9 8 8
28 26 25 24 22 20 20 20 19 19 18 18 18 18 17 17 16 16 16 18 17 18 17 15 17 16 15 15 14 15 14 13 13 13 13 13 13 13 13 11 10 9 7 7 8 9 10 9 9 9 9 8 7 7 6 4 5 5 5 6 6 7
29 29 27 25 22 21 20 20 19 19 18 18 19 18 18 17 16 16 16 18 18 18 17 15 16 16 15 15 14 14 14 13 12 13 13 13 14 13 13 12 11 9 7 7 8 8 8 9 10 10 8 8 7 6 5 5 5 5 5 6 6 8
28 29 27 25 23 21 20 20 19 19 18 19 18 18 18 17 16 16 16 18 19 18 17 15 16 17 15 14 14 14 14 13 13 13 13 14 14 14 13 14 14 12 9 9 9 7 8 9 11 10 8 8 8 6 5 5 5 6 6 6 7 8
29 28 26 25 24 21 20 20 19 18 18 18 18 18 18 17 16 16 16 18 19 18 17 16 16 16 16 14 14 14 14 13 13 14 13 13 15 15 14 12 13 14 12 11 10 10 10 11 11 11 11 9 8 7 5 5 5 6 6 6 7 7
31 28 26 25 24 22 21 20 19 18 18 18 18 17 17 17 16 16 16 17 19 19 17 17 17 16 16 15 14 13 13 13 14 14 13 12 15 16 14 9 11 13 13 12 12 12 12 10 11 14 12 9 8 6 5 5 5 5 5 6 7 7
32 29 27 26 24 23 21 20 19 18 18 18 18 17 16 17 17 16 16 17 19 19 18 17 16 15 15 14 14 13 12 13 14 14 12 13 16 16 14 9 11 11 13 13 13 14 13 11 11 11 10 7 6 6 5 5 4 4 5 5 7 7
33 30 28 26 25 23 22 21 19 18 18 18 18 17 17 17 17 16 17 18 20 20 18 17 17 16 15 14 14 13 12 13 15 13 13 14 16 16 14 10 12 13 13 12 13 15 15 13 10 9 8 6 6 6 5 5 4 5 5 6 7 7
31 31 29 27 26 25 23 23 21 19 19 18 18 17 17 17 16 16 17 18 20 20 18 18 18 17 16 14 14 14 12 13 14 14 13 14 15 14 12 10 13 15 14 13 14 16 14 13 12 11 10 7 6 5 6 6 5 5 6 6 7 7
30 32 30 29 28 27 25 24 22 21 20 18 18 17 17 17 16 16 17 19 20 20 18 18 18 18 17 15 14 14 14 13 14 13 13 14 14 13 12 10 12 14 15 15 15 15 14 14 13 12 11 8 6 5 5 6 6 6 7 7 7 7
29 32 31 28 28 27 25 25 23 22 20 19 19 18 17 17 17 16 17 19 20 20 19 19 18 18 17 16 14 14 14 14 13 12 12 12 13 11 11 11 11 14 16 17 16 15 16 16 14 13 12 9 5 5 6 6 7 7 8 7 7 8
28 31 30 27 26 26 24 24 24 22 21 20 19 19 18 18 18 16 18 19 20 20 19 19 18 18 17 16 15 14 14 14 13 12 11 12 12 11 12 11 11 16 18 16 14 17 20 17 14 15 13 7 6 6 6 8 9 8 9 8 8 8
29 30 29 27 25 24 23 24 22 22 22 19 18 19 17 18 18 17 18 20 20 20 19 19 18 18 17 16 16 14 14 14 14 13 12 13 12 13 15 14 13 16 17 16 14 17 22 17 14 15 10 5 6 5 5 7 10 10 10 9 9 9
29 29 28 28 27 24 24 24 22 21 21 19 18 18 17 17 19 19 19 20 20 20 20 19 18 18 17 16 16 15 14 14 14 13 14 14 13 14 16 16 15 16 16 16 14 16 19 16 16 17 9 4 6 4 3 7 11 8 10 11 10 11
29 29 28 29 29 27 26 25 25 24 23 21 18 18 18 18 20 20 20 20 20 20 20 19 18 18 18 17 17 16 16 14 14 14 15 14 13 14 15 15 16 15 14 13 12 14 16 17 18 17 12 5 5 4 1 7 8 5 9 12 11 12
29 28 28 29 30 28 27 26 25 26 25 24 21 19 19 19 19 20 20 20 20 19 19 19 18 18 18 17 17 17 17 15 14 15 15 16 14 13 14 15 15 14 14 13 12 13 15 19 18 15 13 10 8 7 4 5 5 2 6 9 10 12
29 27 28 30 31 30 28 26 25 24 24 25 23 20 20 20 19 19 19 19 20 19 19 19 19 18 18 18 17 18 17 15 15 15 16 17 16 14 13 14 14 14 14 13 14 13 13 18 18 14 14 14 11 10 9 8 7 5 3 4 8 11
29 27 28 30 32 31 29 28 26 24 23 24 23 22 21 19 18 18 19 19 19 19 19 19 19 19 19 19 18 18 17 16 16 15 16 17 16 14 13 12 13 14 13 13 14 13 12 15 16 13 13 14 13 12 11 10 9 8 6 5 4 7
30 28 30 31 32 32 30 28 27 26 25 25 24 23 21 20 19 19 19 20 19 19 19 19 20 20 20 20 19 18 18 17 16 16 16 15 13 13 12 12 13 14 15 14 14 14 12 13 13 12 12 13 12 12 11 9 9 9 7 7 7 6
32 30 31 32 32 32 30 28 28 27 26 27 26 25 24 22 21 20 20 21 20 19 19 20 20 20 21 20 19 19 18 17 17 16 17 15 12 14 15 14 15 15 16 15 14 14 14 14 11 11 12 13 12 12 11 9 9 9 8 8 8 6
32 31 32 32 33 32 29 27 27 27 27 27 27 28 27 25 24 22 21 22 22 20 21 21 20 20 21 21 20 19 18 18 17 17 17 16 15 16 16 15 15 16 17 16 15 14 15 14 12 12 13 14 13 12 11 11 9 9 9 10 9 7
32 32 33 33 33 31 29 27 27 27 28 28 27 28 28 27 25 23 23 23 23 23 22 23 22 21 21 22 21 21 20 19 18 17 17 17 17 18 17 16 17 16 15 16 16 14 14 14 15 15 13 14 14 13 12 12 10 10 11 11 10 9
30 31 32 32 31 30 29 28 28 27 28 28 27 27 28 28 27 25 24 25 25 24 24 24 23 22 22 22 21 21 20 18 17 15 16 18 19 17 16 17 17 16 14 15 16 15 14 14 15 16 14 14 14 14 13 12 12 13 12 11 11 10
29 30 29 29 30 30 30 30 29 27 27 28 27 26 27 28 29 28 26 26 26 25 25 24 24 23 22 22 22 21 18 17 17 15 16 20 21 18 17 17 16 15 13 13 14 16 15 14 15 16 15 15 14 14 15 13 14 15 13 13 12 12
29 29 29 29 30 31 31 31 29 27 28 29 27 26 26 26 29 29 28 27 26 25 25 24 24 23 23 22 23 22 20 18 18 18 20 22 21 20 20 19 17 15 14 13 14 15 15 14 16 16 16 15 15 15 15 14 14 15 15 13 12 14
28 28 30 30 29 30 30 29 28 28 28 29 29 28 26 26 28 29 28 27 26 26 26 24 23 23 23 23 23 23 21 19 19 19 22 23 20 20 21 20 19 18 18 17 15 14 15 15 16 17 17 16 16 15 15 15 15 15 15 13 14 17
Wind_Direction
166 168 166 167 165 167 175 175 172 173 175 172 170 173 180 181 176 172 167 168 175 176 176 178 175 173 173 172 174 182 187 180 171 169 168 169 170 169 170 169 169 170 171 170 171 171 174 178 174 163 148 144 144 57 61 83 100 96 90 94 96 98
166 168 166 168 165 167 171 172 176 177 175 173 173 171 177 180 179 179 174 173 176 175 177 177 176 173 174 174 177 185 187 183 176 173 172 171 174 173 174 175 176 180 179 181 177 175 179 176 174 163 144 150 131 82 94 102 100 99 98 98 99 101
167 167 164 169 165 166 169 169 176 178 174 173 175 173 175 176 179 181 178 180 182 184 182 180 184 179 175 178 184 189 187 188 185 178 175 175 178 176 179 181 182 186 184 186 176 177 183 172 170 156 140 156 113 118 134 115 104 104 106 104 103 104
167 167 164 169 165 166 169 169 176 178 175 174 176 175 179 178 179 180 178 183 185 188 188 184 189 185 179 180 185 190 189 192 190 184 178 177 182 182 185 186 189 190 189 192 188 190 186 171 172 158 149 165 142 168 153 115 101 102 107 105 104 106
168 169 167 169 167 168 170 170 177 180 178 176 176 178 183 182 182 180 179 186 185 187 192 185 185 187 185 181 182 187 191 192 191 190 182 179 188 188 188 189 193 194 195 202 206 204 186 181 178 157 151 155 165 205 148 109 99 100 104 102 104 109
171 171 171 170 169 170 173 175 176 180 183 180 177 178 183 186 186 183 182 188 188 188 190 183 181 188 188 185 186 189 193 192 191 193 186 185 192 192 194 193 195 200 204 209 213 208 190 189 171 150 155 154 166 199 117 107 103 100 100 98 104 113
171 173 173 171 170 169 175 181 177 180 186 183 180 180 184 189 188 188 188 188 191 190 189 184 182 189 190 189 192 189 192 192 192 194 191 195 197 194 200 198 196 203 208 209 209 205 197 188 159 156 161 146 156 153 113 110 106 101 100 97 102 117
172 174 174 174 174 171 176 182 178 181 188 185 183 183 186 190 189 191 193 191 192 191 192 189 184 189 191 191 192 188 191 191 192 194 193 200 200 197 205 204 200 205 208 208 206 202 194 179 155 155 146 141 176 154 122 114 108 105 103 101 102 116
174 175 176 177 177 176 178 181 181 185 190 186 184 187 188 190 191 193 196 195 193 191 194 191 186 191 190 190 191 188 192 190 193 196 193 201 203 199 207 206 202 207 207 204 201 193 192 178 153 153 150 158 176 144 123 117 113 109 106 106 105 115
176 176 177 180 180 179 179 180 183 188 191 188 188 191 190 191 194 195 198 198 196 195 196 191 188 191 189 190 190 188 193 190 194 197 193 200 202 201 207 205 203 210 207 201 197 182 178 168 154 167 171 172 163 136 129 123 118 111 110 114 112 121
178 177 177 181 181 180 181 183 185 188 190 188 190 193 191 194 197 197 199 198 199 199 198 194 190 191 189 189 189 188 191 189 193 196 194 199 202 202 205 204 204 211 205 193 183 167 169 168 164 178 180 178 162 137 136 135 128 116 116 119 115 122
177 179 179 181 181 181 183 186 188 189 191 190 191 193 193 196 197 200 201 199 201 200 199 195 191 192 190 188 188 188 189 189 191 193 195 199 202 203 205 206 206 204 197 184 162 153 175 184 177 181 181 174 156 140 139 135 118 107 118 123 121 127
175 178 180 181 182 184 184 187 189 190 191 190 192 194 196 198 197 201 201 200 200 199 198 195 191 192 190 189 187 186 189 190 191 192 195 199 200 204 206 205 202 192 182 185 167 155 175 184 183 187 181 168 151 141 134 119 111 114 126 127 131 139
173 176 179 180 181 184 186 188 189 191 190 188 192 197 198 199 199 202 202 199 198 197 197 194 191 191 192 190 186 187 189 190 192 192 194 198 200 204 206 200 196 188 172 182 179 166 173 174 188 193 175 159 141 135 132 123 126 130 130 127 136 145
171 176 180 180 181 183 186 188 189 192 191 187 192 197 200 200 200 202 200 196 196 194 194 193 190 190 192 190 187 188 189 191 192 192 196 200 202 206 209 201 194 191 175 174 176 170 179 188 201 193 156 147 140 136 137 131 137 135 133 137 144 147
168 175 180 181 180 182 185 188 190 191 190 188 190 194 200 201 201 201 198 193 192 191 191 191 189 190 194 192 190 190 189 191 188 192 198 200 206 210 215 206 185 191 182 170 176 174 182 192 191 169 145 144 146 144 138 140 150 143 140 143 146 151
166 173 178 181 180 180 183 187 190 190 188 189 192 195 199 200 202 200 195 191 188 187 188 188 188 192 199 199 196 193 189 189 187 193 198 201 211 215 223 202 156 182 185 167 171 171 173 173 160 155 151 146 146 149 144 149 156 143 146 149 149 156
164 170 175 179 180 180 181 184 189 188 187 189 193 197 199 200 202 199 195 191 185 185 186 186 190 195 204 207 203 196 188 189 189 196 202 206 215 220 226 196 143 174 186 168 163 160 162 156 147 155 159 151 147 146 143 152 157 151 158 159 155 158
161 167 174 177 179 179 178 183 186 185 186 189 193 197 200 201 202 200 195 189 183 184 186 187 193 198 207 211 206 197 191 193 195 201 206 210 219 224 225 197 159 175 185 175 164 159 159 152 150 164 166 160 153 148 152 160 169 167 168 162 159 163
161 165 172 176 178 178 178 182 184 185 186 187 191 195 200 203 200 200 196 189 184 184 187 190 195 200 207 211 207 199 193 196 201 206 209 213 221 223 220 193 162 169 179 174 165 164 164 155 156 165 166 163 155 165 172 172 185 178 171 168 166 171
163 164 170 176 179 180 179 180 182 185 186 185 190 192 198 203 199 199 197 190 186 186 189 191 196 201 206 210 208 202 199 200 204 209 213 218 222 221 215 191 161 168 173 166 167 173 169 157 157 163 165 163 159 180 178 179 197 187 180 179 173 177
168 167 172 177 181 183 181 178 179 182 184 183 189 191 195 202 200 199 198 193 188 188 190 192 196 201 204 207 205 203 204 204 206 210 217 221 223 222 211 191 172 176 173 167 173 180 171 164 168 168 163 162 171 193 189 197 213 201 189 185 180 184
173 171 174 178 181 184 182 178 176 177 182 182 189 195 196 201 201 199 198 195 190 189 191 193 196 200 203 205 203 203 204 206 207 210 217 220 221 219 209 198 184 179 177 175 178 179 175 176 179 168 161 171 182 187 192 204 216 213 199 190 190 192
179 174 174 178 179 183 181 177 174 173 179 183 189 196 198 200 200 199 198 196 193 191 192 194 196 199 202 203 203 204 205 206 207 210 215 219 220 215 209 207 193 182 183 183 180 180 181 185 180 167 169 187 178 194 213 191 195 205 202 197 200 202
181 176 174 176 177 181 179 175 172 169 178 188 191 190 195 201 200 200 199 196 194 192 194 197 198 200 202 203 204 204 205 206 206 209 214 219 223 218 213 209 199 192 192 189 182 179 183 188 184 177 184 179 160 214 255 165 173 191 199 202 206 208
180 178 177 177 177 180 179 175 172 169 174 186 189 184 191 203 201 200 199 195 195 193 194 198 199 200 202 203 204 204 204 203 205 210 214 218 223 222 217 211 205 198 193 193 183 175 182 189 192 193 204 212 186 227 249 159 170 174 190 204 209 209
179 178 177 177 178 178 178 178 177 174 172 179 185 184 191 201 200 200 198 194 193 194 196 199 201 203 203 204 205 205 204 202 206 212 214 215 218 222 220 212 208 201 194 197 193 185 183 184 194 208 215 225 226 233 234 193 201 176 178 203 208 211
179 178 178 179 180 180 179 179 180 178 173 175 181 184 190 196 197 198 196 191 191 194 196 200 203 205 205 205 205 204 204 203 206 211 214 216 215 218 221 213 207 204 201 200 196 195 187 181 191 205 208 217 228 232 231 226 240 254 241 225 202 208
179 180 180 181 182 183 182 179 180 180 175 173 177 181 189 194 194 194 192 189 190 192 196 202 206 208 208 206 206 205 204 204 208 211 214 219 220 218 220 216 208 202 201 199 195 199 196 187 192 198 201 211 221 228 230 228 235 247 261 267 228 202
179 182 183 183 185 187 185 181 182 183 178 174 173 178 185 187 187 190 191 190 192 193 196 203 208 209 210 207 206 206 205 206 209 211 214 218 225 224 220 218 212 204 202 200 197 199 196 189 194 201 205 210 218 224 227 225 225 231 241 252 255 224
181 183 182 184 189 191 187 183 185 185 181 177 173 175 180 183 185 190 195 194 195 197 198 203 207 208 210 209 206 206 206 208 208 211 214 213 221 226 218 215 214 208 205 200 195 195 195 193 197 206 209 212 219 223 223 223 222 224 227 235 244 241
182 183 182 185 191 192 189 189 190 190 187 181 176 175 177 182 186 191 196 196 196 199 202 203 205 207 209 208 206 204 204 208 208 210 213 211 218 225 217 212 213 208 203 199 196 196 198 200 201 205 210 217 225 225 224 226 223 221 223 233 239 246
181 181 181 185 191 192 192 195 196 195 194 187 179 177 178 181 186 191 194 196 197 199 202 203 204 206 208 206 205 204 204 206 208 207 208 209 218 222 217 215 213 205 198 197 197 198 200 202 202 207 214 220 226 226 224 224 223 224 223 232 241 244
185 184 183 185 191 194 195 199 201 199 199 194 185 180 180 180 183 190 193 195 198 201 201 202 204 205 206 206 204 204 205 206 206 204 207 211 215 218 219 220 212 200 197 199 200 201 202 203 206 212 218 222 227 227 226 224 222 226 225 226 234 239
188 188 186 185 190 196 198 201 202 201 201 199 193 186 184 181 182 188 193 194 197 201 202 202 204 205 205 205 203 202 203 204 202 201 209 212 211 212 214 216 209 198 195 196 198 202 204 208 212 216 219 223 229 228 226 225 222 226 227 225 229 235
186 187 187 187 190 195 199 200 199 201 204 204 200 194 190 185 183 186 192 196 197 200 202 203 204 204 203 203 203 201 200 203 203 203 209 211 208 209 211 211 206 199 195 193 197 202 204 209 215 220 223 225 230 231 226 224 223 225 228 229 230 231
188 188 189 189 189 193 198 200 198 200 206 207 204 201 198 190 184 185 190 197 198 200 203 203 201 200 200 201 202 201 200 201 201 205 212 212 207 208 211 211 207 205 204 201 201 204 206 208 214 221 224 224 227 230 224 221 223 224 228 232 232 237